Weather observations for the past three days for
Corinth
Imperial (Metric)
Date Time (cdt) Wind (mph) Vis. (mi.) Weather Sky Cond. Temperature (ºF) Relative Humidity Wind Chill (°F) Heat Index (°F) Pressure Precipitation (in)
Air Dwpt 6 hour altimeter (in) sea level (mb) 1 hr 3 hr 6 hr
Max. Min.
20 06:15 Calm 3.00 Fog/Mist CLR 64.4 64.4 100% 30.25 0.0
20 05:55 Calm 8.00 Fair CLR 64.4 64.4 100% 30.24 0.0
20 05:35 Calm 6.00 Fog/Mist CLR 64.4 64.4 100% 30.24 0.0
20 05:15 Calm 6.00 Fog/Mist CLR 64.4 64.4 100% 30.23 0.0
20 04:55 Calm 3.00 Fog/Mist CLR 64.4 64.4 100% 30.23 0.0
20 04:35 Calm 2.00 Fog/Mist CLR 64.4 64.4 100% 30.22 0.0
20 04:15 Calm 0.50 Fog VV005 64.4 64.4 100% 30.23 0.0
20 03:55 Calm 3.00 Fog/Mist CLR 66.2 66.2 100% 30.23 0.0
20 03:35 Calm 3.00 Fog/Mist CLR 64.4 64.4 100% 30.23 0.0
20 03:15 Calm 8.00 Fair CLR 66.2 66.2 100% 30.22 0.0
20 02:55 Calm 4.00 Fog/Mist CLR 66.2 66.2 100% 30.22 0.0
20 02:35 Calm 7.00 Fair CLR 66.2 66.2 100% 30.22 0.0
20 02:15 Calm 9.00 Fair CLR 68 68 100% 30.22 0.0
20 01:55 Calm 6.00 Fog/Mist CLR 66.2 66.2 100% 30.22 0.0
20 01:35 Calm 10.00 Fair CLR 68 68 100% 30.23 0.0
20 01:15 Calm 10.00 Fair CLR 68 68 100% 30.23 0.0
20 00:55 Calm 10.00 Fair CLR 68 68 100% 30.23 0.0
20 00:35 Calm 10.00 Fair CLR 69.8 68 94% 30.23 0.0
20 00:15 Calm 10.00 Fair CLR 69.8 68 94% 30.23 0.0
19 23:55 Calm 10.00 Fair CLR 69.8 68 94% 30.23 0.0
19 23:35 Calm 10.00 Fair CLR 69.8 69.8 100% 30.23 0.0
19 23:15 Calm 10.00 Fair CLR 69.8 68 94% 30.23 0.0
19 22:55 Calm 10.00 Fair CLR 69.8 68 94% 30.23 0.0
19 22:35 Calm 10.00 Fair CLR 71.6 69.8 94% 30.22 0.0
19 22:15 Calm 10.00 Fair CLR 71.6 68 88% 30.22 0.0
19 21:55 Calm 10.00 Fair CLR 71.6 69.8 94% 30.21 0.0
19 21:35 Calm 10.00 Fair CLR 71.6 69.8 94% 30.21 0.0
19 21:15 Calm 10.00 Fair CLR 73.4 69.8 89% 30.2 0.0
19 20:55 Calm 10.00 Fair CLR 73.4 69.8 89% 30.2 0.0
19 20:35 E 3 10.00 Fair CLR 75.2 69.8 83% 75 30.2 0.0
19 20:15 E 5 10.00 Fair CLR 75.2 69.8 83% 75 30.2 0.0
19 19:55 E 3 10.00 Fair CLR 78.8 69.8 74% 81 30.2 0.0
19 19:35 E 5 10.00 Fair CLR 80.6 68 66% 83 30.19 0.0
19 19:15 E 5 10.00 A Few Clouds FEW048 80.6 68 66% 83 30.18 0.0
19 18:55 E 6 10.00 A Few Clouds FEW047 80.6 66.2 62% 83 30.18 0.0
19 18:35 E 8 10.00 Fair CLR 80.6 68 66% 83 30.18 0.0
19 18:15 E 7 10.00 Fair CLR 80.6 66.2 62% 83 30.17 0.0
19 17:55 E 8 10.00 Fair CLR 82.4 66.2 58% 85 30.17 0.0
19 17:35 E 12 10.00 Light Drizzle CLR 82.4 66.2 58% 85 30.17 0.0
19 17:15 E 10 10.00 Fair CLR 84.2 68 58% 87 30.17 0.0
19 16:55 E 10 10.00 Fair CLR 84.2 68 58% 87 30.17 0.0
19 16:35 E 12 10.00 Fair CLR 84.2 68 58% 87 30.18 0.0
19 16:15 E 13 10.00 Fair CLR 84.2 66.2 55% 87 30.18 0.0
19 15:55 E 12 10.00 Fair CLR 84.2 68 58% 87 30.18 0.0
19 15:35 E 13 10.00 Fair CLR 84.2 66.2 55% 87 30.18 0.0
19 15:15 E 7 10.00 Fair CLR 84.2 68 58% 87 30.18 0.0
19 14:55 SE 8 10.00 Fair CLR 84.2 66.2 55% 87 30.19 0.0
19 14:35 E 10 10.00 Fair CLR 84.2 64.4 51% 86 30.19 0.0
19 14:15 E 14 10.00 Fair CLR 86 64.4 49% 87 30.2 0.0
19 13:55 E 8 10.00 Fair CLR 86 66.2 52% 88 30.2 0.0
19 13:35 SE 12 10.00 Fair CLR 86 64.4 49% 87 30.21 0.0
19 13:15 E 13 10.00 Fair CLR 84.2 64.4 51% 86 30.21 0.0
19 12:55 E 12 G 17 10.00 Fair CLR 86 62.6 46% 87 30.21 0.0
19 12:35 E 10 10.00 Fair CLR 84.2 66.2 55% 87 30.22 0.0
19 12:15 E 12 10.00 Fair CLR 84.2 68 58% 87 30.22 0.0
19 11:55 E 9 10.00 Fair CLR 84.2 68 58% 87 30.22 0.0
19 11:35 SE 7 G 17 10.00 Fair CLR 84.2 68 58% 87 30.23 0.0
19 11:15 E 13 10.00 Fair CLR 84.2 68 58% 87 30.22 0.0
19 10:55 SE 9 10.00 Fair CLR 84.2 68 58% 87 30.22 0.0
19 10:35 SE 9 10.00 Fair CLR 82.4 68 62% 85 30.22 0.0
19 10:15 SE 13 10.00 Fair CLR 82.4 66.2 58% 85 30.22 0.0
19 09:55 SE 10 G 20 10.00 Fair CLR 82.4 68 62% 85 30.22 0.0
19 09:35 SE 10 10.00 Fair CLR 82.4 68 62% 85 30.22 0.0
19 09:15 SE 9 10.00 Fair CLR 78.8 68 70% 81 30.22 0.0
19 08:55 SE 9 10.00 Fair CLR 78.8 68 70% 81 30.22 0.0
19 08:15 SE 6 10.00 Fair CLR 75.2 69.8 83% 75 30.21 0.0
19 07:55 SE 6 10.00 Fair CLR 75.2 69.8 83% 75 30.2 0.0
19 07:35 SE 6 10.00 Fair CLR 75.2 69.8 83% 75 30.19 0.0
19 07:15 SE 7 10.00 Fair CLR 75.2 69.8 83% 75 30.18 0.0
19 06:55 SE 6 10.00 Fair CLR 73.4 68 83% 30.17 0.0
19 06:35 E 3 10.00 Fair CLR 73.4 68 83% 30.17 0.0
19 06:15 Calm 10.00 Fair CLR 73.4 69.8 89% 30.15 0.0
19 05:55 Calm 10.00 Fair CLR 71.6 69.8 94% 30.14 0.0
19 05:35 Calm 10.00 Fair CLR 71.6 69.8 94% 30.14 0.0
19 05:15 Calm 10.00 Fair CLR 71.6 71.6 100% 30.13 0.0
19 04:55 Calm 10.00 Fair CLR 69.8 69.8 100% 30.12 0.0
19 04:35 Calm 8.00 Fair CLR 71.6 71.6 100% 30.12 0.0
19 04:15 Calm 7.00 Fair CLR 71.6 71.6 100% 30.11 0.0
19 03:55 Calm 6.00 Fog/Mist CLR 71.6 71.6 100% 30.1 0.0
19 03:35 Calm 7.00 Fair CLR 71.6 71.6 100% 30.1 0.0
19 03:15 Calm 4.00 Fog/Mist CLR 71.6 71.6 100% 30.09 0.0
19 02:55 Calm 8.00 Fair CLR 71.6 71.6 100% 30.09 0.0
19 02:35 Calm 7.00 Fair CLR 71.6 71.6 100% 30.09 0.0
19 02:15 Calm 5.00 Fog/Mist CLR 71.6 71.6 100% 30.09 0.0
19 01:55 Calm 5.00 Fog/Mist CLR 71.6 71.6 100% 30.09 0.0
19 01:35 Calm 8.00 Fair CLR 71.6 71.6 100% 30.08 0.0
19 01:15 Calm 7.00 Fair CLR 71.6 71.6 100% 30.08 0.0
19 00:55 Calm 9.00 Fair CLR 71.6 71.6 100% 30.09 0.0
19 00:35 Calm 7.00 Fair CLR 71.6 71.6 100% 30.09 0.0
18 23:50 Calm 8.00 Fair CLR 73.4 73.4 100% 30.09 0.0
18 23:35 Calm 10.00 Fair CLR 73.4 73.4 100% 30.09 0.0
18 23:15 Calm 10.00 Fair CLR 73.4 73.4 100% 30.08 0.0
18 22:55 Calm 10.00 Fair CLR 73.4 73.4 100% 30.08 0.0
18 22:35 Calm 10.00 Fair CLR 73.4 73.4 100% 30.08 0.0
18 22:15 Calm 10.00 Fair CLR 75.2 73.4 94% 74 30.08 0.0
18 21:55 Calm 10.00 Fair CLR 75.2 73.4 94% 74 30.07 0.0
18 21:35 Calm 10.00 Fair CLR 75.2 73.4 94% 74 30.07 0.0
18 21:15 Calm 10.00 Fair CLR 75.2 73.4 94% 74 30.07 0.0
18 20:55 Calm 10.00 Fair CLR 75.2 73.4 94% 74 30.06 0.0
18 20:35 Calm 10.00 Fair CLR 75.2 73.4 94% 74 30.06 0.0
18 20:15 Calm 10.00 Fair CLR 77 73.4 89% 78 30.05 0.0
18 19:55 Calm 10.00 Fair CLR 77 73.4 89% 78 30.06 0.0
18 19:35 Calm 10.00 Fair CLR 80.6 71.6 74% 85 30.06 0.0
18 19:15 Calm 10.00 Fair CLR 80.6 71.6 74% 85 30.06 0.0
18 18:55 SE 5 10.00 Fair CLR 80.6 71.6 74% 85 30.06 0.0
18 18:35 SE 5 10.00 Fair CLR 82.4 71.6 70% 87 30.06 0.0
18 18:15 SE 7 10.00 Fair CLR 82.4 71.6 70% 87 30.06 0.0
18 17:55 E 6 10.00 Fair CLR 82.4 73.4 74% 88 30.06 0.0
18 17:35 E 6 10.00 Fair CLR 82.4 73.4 74% 88 30.06 0.0
18 17:15 E 7 10.00 Fair CLR 82.4 73.4 74% 88 30.06 0.0
18 16:55 E 6 10.00 Fair CLR 82.4 73.4 74% 88 30.07 0.0
18 16:35 SE 8 10.00 Fair CLR 82.4 71.6 70% 87 30.07 0.0
18 16:15 SE 7 10.00 Fair CLR 84.2 73.4 70% 91 30.08 0.0
18 15:45 E 6 10.00 Fair CLR 84.2 73.4 70% 91 30.08 0.0
18 15:35 SE 6 10.00 Fair CLR 84.2 73.4 70% 91 30.08 0.0
18 15:15 E 6 10.00 Fair CLR 84.2 71.6 66% 90 30.09 0.0
18 14:55 SE 5 10.00 Fair CLR 84.2 71.6 66% 90 30.09 0.0
18 14:35 SE 8 10.00 Fair CLR 84.2 69.8 62% 88 30.09 0.0
18 14:15 E 9 10.00 Fair CLR 84.2 69.8 62% 88 30.09 0.0
18 13:55 SE 7 10.00 Fair CLR 84.2 69.8 62% 88 30.1 0.0
18 13:35 SE 10 G 17 10.00 A Few Clouds FEW070 FEW085 84.2 69.8 62% 88 30.1 0.0
18 13:15 SE 12 10.00 Partly Cloudy SCT070 SCT085 84.2 69.8 62% 88 30.1 0.0
18 12:55 SE 8 10.00 Partly Cloudy FEW070 SCT085 84.2 69.8 62% 88 30.1 0.0
18 12:35 SE 10 10.00 Partly Cloudy FEW075 SCT085 84.2 71.6 66% 90 30.1 0.0
18 12:15 E 6 G 14 10.00 Fair CLR 84.2 73.4 70% 91 30.1 0.0
18 11:55 SE 8 10.00 Fair CLR 82.4 71.6 70% 87 30.1 0.0
18 11:35 SE 8 G 14 10.00 Fair CLR 82.4 73.4 74% 88 30.09 0.0
18 11:15 SE 6 10.00 Fair CLR 80.6 73.4 79% 85 30.1 0.0
18 10:55 SE 5 10.00 Fair CLR 80.6 71.6 74% 85 30.11 0.0
18 10:35 SE 8 10.00 Fair CLR 78.8 71.6 79% 82 30.11 0.0
18 10:15 S 9 10.00 Fair CLR 80.6 71.6 74% 85 30.11 0.0
18 09:55 SE 9 10.00 Fair CLR 78.8 73.4 84% 82 30.11 0.0
18 09:35 SE 8 10.00 A Few Clouds FEW110 78.8 73.4 84% 82 30.11 0.0
18 09:15 SE 5 10.00 Mostly Cloudy BKN100 BKN120 77 73.4 89% 78 30.11 0.0
18 08:55 SE 7 10.00 Mostly Cloudy FEW090 BKN120 77 73.4 89% 78 30.11 0.0
18 08:35 SE 6 10.00 Partly Cloudy SCT090 SCT120 77 73.4 89% 78 30.1 0.0
18 08:15 SE 5 10.00 A Few Clouds FEW095 FEW110 77 75.2 94% 78 30.1 0.0
18 07:55 SE 5 10.00 Partly Cloudy SCT110 75.2 75.2 100% 73 30.1 0.0
18 07:35 SE 5 10.00 A Few Clouds FEW100 75.2 73.4 94% 74 30.1 0.0
18 07:15 SE 3 10.00 Partly Cloudy SCT100 73.4 73.4 100% 30.09 0.0
18 06:55 Calm 9.00 Mostly Cloudy BKN100 73.4 73.4 100% 30.09 0.0
18 06:35 Calm 8.00 Partly Cloudy SCT100 73.4 73.4 100% 30.08 0.0
18 06:15 Calm 8.00 Mostly Cloudy BKN095 BKN120 73.4 73.4 100% 30.08 0.0
18 05:55 Calm 10.00 Overcast OVC100 73.4 73.4 100% 30.08 0.0
18 05:35 Calm 10.00 Mostly Cloudy BKN100 73.4 73.4 100% 30.07 0.0
18 05:15 Calm 10.00 A Few Clouds FEW047 73.4 73.4 100% 30.07 0.0
18 04:55 Calm 10.00 Overcast OVC047 73.4 73.4 100% 30.06 0.0
18 04:35 Calm 7.00 Mostly Cloudy BKN049 BKN065 BKN095 73.4 73.4 100% 30.05 0.0
18 04:15 Calm 6.00 Fog/Mist FEW070 FEW080 SCT095 73.4 73.4 100% 30.04 0.0
18 03:55 Calm 6.00 Fog/Mist CLR 73.4 73.4 100% 30.04 0.0
18 03:35 Calm 8.00 Fair CLR 73.4 73.4 100% 30.03 0.0
18 03:15 Calm 9.00 Fair CLR 73.4 73.4 100% 30.03 0.0
18 02:55 Calm 5.00 Fog/Mist FEW110 73.4 73.4 100% 30.03 0.0
18 02:35 Calm 8.00 Fair CLR 73.4 73.4 100% 30.03 0.0
18 02:15 Calm 8.00 Fair CLR 73.4 73.4 100% 30.03 0.0
18 01:55 Calm 10.00 Fair CLR 73.4 73.4 100% 30.03 0.0
18 01:35 Calm 10.00 Fair CLR 73.4 73.4 100% 30.03 0.0
18 01:15 Calm 10.00 Fair CLR 73.4 73.4 100% 30.04 0.0
18 00:55 Calm 10.00 Fair CLR 73.4 73.4 100% 30.04 0.0
18 00:35 Calm 10.00 Fair CLR 73.4 73.4 100% 30.04 0.0
18 00:15 SE 3 10.00 Fair CLR 73.4 73.4 100% 30.05 0.0
17 23:55 E 5 10.00 Light Drizzle FEW037 FEW046 SCT060 73.4 73.4 100% 30.05 0.0 0.01
17 23:35 Calm 10.00 Fair CLR 73.4 73.4 100% 30.06 0.0
17 23:15 SE 3 10.00 Fair CLR 73.4 73.4 100% 30.05 0.0
17 22:55 Calm 10.00 A Few Clouds FEW055 FEW065 FEW110 73.4 73.4 100% 30.05 0.0 0.02
17 22:30 SE 3 10.00 Partly Cloudy FEW039 FEW055 SCT120 73.4 73.4 100% 30.05 0.0
17 22:15 E 5 8.00 Light Drizzle FEW003 SCT039 BKN055 73.4 73.4 100% 30.04 0.0
17 21:55 Calm 8.00 Light Rain FEW036 SCT050 OVC065 73.4 73.4 100% 30.05 0.0 0.02
17 21:35 Calm 10.00 Light Drizzle FEW049 BKN060 OVC095 73.4 73.4 100% 30.06 0.0
17 21:15 Calm 10.00 Overcast SCT060 BKN085 OVC110 73.4 71.6 94% 30.06 0.0
17 20:55 Calm 10.00 Partly Cloudy FEW055 FEW085 SCT110 73.4 71.6 94% 30.04 0.0 0.07
17 20:35 S 6 10.00 Partly Cloudy FEW050 FEW060 SCT080 73.4 71.6 94% 30.03 0.0
17 20:15 E 6 G 13 9.00 Mostly Cloudy FEW004 SCT033 BKN050 73.4 71.6 94% 30.03 0.0
17 19:55 S 17 G 37 10.00 Light Drizzle FEW030 FEW036 BKN045 78.8 71.6 79% 82 30.05 0.0
17 19:35 SE 5 10.00 A Few Clouds FEW100 82.4 75.2 79% 89 30.02 0.0
17 19:15 SE 5 10.00 Partly Cloudy SCT100 SCT120 84.2 75.2 74% 92 30.01 0.0
17 18:55 SE 5 10.00 A Few Clouds FEW120 84.2 75.2 74% 92 30 0.0
17 18:35 SE 7 10.00 Fair CLR 84.2 75.2 74% 92 30 0.0
17 18:15 SE 10 9.00 A Few Clouds FEW029 FEW036 FEW045 87.8 73.4 62% 96 29.99 0.0
17 17:55 E 10 9.00 Partly Cloudy FEW029 SCT038 SCT044 86 73.4 66% 93 29.99 0.0
17 17:35 SE 7 10.00 Fair CLR 87.8 73.4 62% 96 29.98 0.0
17 17:15 SE 9 9.00 Fair CLR 87.8 71.6 59% 94 29.99 0.0
17 16:55 SE 16 10.00 Fair CLR 87.8 73.4 62% 96 29.99 0.0
17 16:35 SE 14 10.00 A Few Clouds FEW041 89.6 73.4 59% 98 29.98 0.0
17 16:15 SE 8 10.00 Partly Cloudy SCT042 89.6 73.4 59% 98 29.98 0.0
17 15:55 SE 15 10.00 A Few Clouds FEW041 FEW049 89.6 71.6 55% 96 29.98 0.0
17 15:35 SE 10 10.00 Partly Cloudy SCT040 SCT050 87.8 73.4 62% 96 29.99 0.0
17 15:15 SE 8 G 16 7.00 Partly Cloudy SCT039 87.8 73.4 62% 96 30 0.0
17 14:55 S 13 10.00 A Few Clouds FEW040 FEW047 89.6 73.4 59% 98 30.01 0.0
17 14:35 SE 12 G 18 10.00 Partly Cloudy SCT040 SCT047 SCT060 87.8 73.4 62% 96 30.02 0.0
17 14:00 SE 12 G 17 10.00 Overcast BKN037 BKN045 OVC065 86 73.4 66% 93 30.03 0.0
17 13:55 SE 10 G 17 10.00 Overcast BKN038 BKN049 OVC065 86 73.4 66% 93 30.03 0.0
17 13:35 E 9 10.00 Mostly Cloudy SCT037 BKN050 BKN065 86 75.2 70% 95 30.04 0.0
17 13:15 SE 8 G 16 10.00 Partly Cloudy SCT035 SCT041 SCT050 87.8 73.4 62% 96 30.04 0.0
17 12:55 Vrbl 7 G 16 10.00 Partly Cloudy FEW034 SCT041 87.8 73.4 62% 96 30.04 0.0
17 12:35 S 10 10.00 A Few Clouds FEW030 87.8 73.4 62% 96 30.05 0.0
17 12:15 SE 8 10.00 Fair CLR 86 73.4 66% 93 30.05 0.0
17 11:55 S 8 G 15 10.00 A Few Clouds FEW055 FEW070 84.2 73.4 70% 91 30.06 0.0
17 11:35 Vrbl 7 G 14 10.00 Partly Cloudy SCT055 SCT065 84.2 73.4 70% 91 30.07 0.0
17 11:15 SE 9 10.00 Partly Cloudy SCT055 SCT060 82.4 73.4 74% 88 30.08 0.0
17 10:55 S 9 10.00 Partly Cloudy SCT055 82.4 73.4 74% 88 30.08 0.0
17 10:35 S 9 10.00 Fair CLR 82.4 73.4 74% 88 30.08 0.0
17 10:15 S 10 G 17 10.00 A Few Clouds FEW014 80.6 73.4 79% 85 30.08 0.0
17 09:55 S 9 10.00 Partly Cloudy SCT014 78.8 75.2 89% 82 30.08 0.0
17 09:35 S 12 G 20 9.00 Light Drizzle BKN014 77 73.4 89% 78 30.08 0.0
17 09:15 SE 13 10.00 Partly Cloudy SCT013 78.8 73.4 84% 82 30.08 0.0
17 08:55 S 12 10.00 Light Drizzle FEW013 78.8 75.2 89% 82 30.07 0.0
17 08:35 S 10 10.00 A Few Clouds FEW012 77 75.2 94% 78 30.07 0.0
17 08:15 SE 8 10.00 Fair CLR 75.2 73.4 94% 74 30.07 0.0
17 07:55 SE 7 10.00 Fair CLR 75.2 73.4 94% 74 30.07 0.0
17 07:35 SE 8 10.00 Fair CLR 75.2 73.4 94% 74 30.06 0.0
17 07:15 SE 7 10.00 Fair CLR 75.2 73.4 94% 74 30.06 0.0
17 06:55 SE 7 10.00 Fair CLR 75.2 73.4 94% 74 30.05 0.0
Date Time (cdt) Wind (mph) Vis. (mi.) Weather Sky Cond. Air Dwpt Max. Min. Relative Humidity Wind Chill (°F) Heat Index (°F) altimeter (in) sea level (mb) 1 hr 3 hr 6 hr
6 hour
Temperature (ºF) Pressure Precipitation (in)